Location: Biasong
(11.9252°N, 124.2899°E)
Time: 00:06:38
(UTC+00:00)

Daily predictions for brighter satellites

Satellite Brightness Start Highest point End
(mag) Time Altitude Azimuth Time Altitude Azimuth Time Altitude Azimuth
Centaur AC-146 3.8 09:26:00 10° W 09:29:44 62° S 09:53:25 10° ESE
NOSS 3-2 (A) 3.3 09:37:33 10° S 09:42:51 53° ESE 09:48:21 10° NE
USA 234 3.8 09:39:54 10° ENE 09:45:55 39° SE 09:51:55 10° SSW
Meteor 1-21 Rocket 4.3 09:41:06 10° N 09:46:45 56° E 09:52:16 10° SSE
Cosmos 1908 3.4 09:45:21 10° SSE 09:49:07 48° E 09:52:54 10° NNE
ASTEX 1 3.4 09:45:50 10° N 09:50:47 78° E 09:55:47 10° S
Cosmos 1758 Rocket 3.6 09:51:25 10° N 09:55:54 90° SSW 10:00:23 10° S
YAOGAN 1 3.6 09:54:31 10° SE 09:58:01 24° ENE 10:01:30 10° NNE
Cosmos 44 4.2 09:56:22 10° S 10:00:56 30° ESE 10:05:21 10° NE
Cosmos 1486 Rocket 4.2 09:56:04 10° NNW 10:01:23 81° WSW 10:06:41 10° S
NOSS 3-2 (C) 3.4 10:00:24 10° S 10:05:39 48° ESE 10:11:05 10° NE
SWIFT 3.7 10:03:29 10° SW 10:07:06 27° SSE 10:09:48 15° ESE
Cosmos 1354 Rocket 4.2 10:03:05 10° N 10:08:05 47° ENE 10:13:07 10° SSE
Cosmos 968 Rocket 3.5 10:04:09 10° N 10:09:18 58° ENE 10:14:24 10° SSE
CZ-4C R/B 3.2 10:05:52 10° NNW 10:13:49 57° ENE 10:22:01 10° SE
Cosmos 1727 Rocket 4.1 10:08:10 10° SSE 10:14:10 52° E 10:20:07 10° NNE
CZ-4 R/B 1.4 10:10:20 10° SSE 10:14:18 59° ENE 10:18:22 10° N
ARIANE 44L R/B 4.2 09:57:11 10° W 10:14:41 52° S 10:17:34 17° ESE
SEDSat Delta rocket 3.3 10:15:13 10° SW 10:20:15 59° SSE 10:22:44 25° ENE
CZ-4 R/B 4.3 10:16:32 10° SSE 10:20:39 81° E 10:24:45 10° N
Cosmos 1328 4.0 10:17:15 10° N 10:21:02 46° E 10:24:47 10° SSE
Centaur D-1AR AC-41 3.2 10:13:45 10° WSW 10:23:05 79° NNW 10:25:19 25° ENE
Cosmos 1605 Rocket 4.2 10:20:01 10° NNE 10:25:46 43° E 10:31:28 10° SSE
CZ-2C R/B 4.4 10:24:06 22° ENE 10:26:05 31° E 10:30:12 10° SSE
CSL-04 Debris 4.1 10:22:56 10° SSE 10:28:17 65° ENE 10:33:38 10° N
Centaur AC-102 4.0 10:17:27 10° W 10:31:11 72° NNW 10:34:01 27° ENE
Cosmos 1503 Rocket 4.1 10:27:11 10° NNW 10:32:20 77° WSW 10:37:32 10° S
Cosmos 1934 Rocket 4.1 10:30:49 10° N 10:37:11 82° W 10:43:32 10° S
ATLAS 3B R/B 2.6 10:37:00 10° SSW 10:43:55 69° ESE 10:48:45 20° NNE
Hubble Space Telescope 2.9 10:41:18 10° W 10:44:31 22° SSW 10:47:13 12° SSE
COSMOS 2406 3.9 10:40:46 10° N 10:44:56 33° NE 10:44:56 33° NE
Atlas Centaur 2 1.8 10:40:01 10° WNW 10:46:05 82° NNE 10:47:33 47° ESE
Cosmos 1300 2.8 10:48:18 10° S 10:52:06 74° W 10:53:39 34° N
Cosmos 1242 Rocket 3.6 10:48:50 10° NNW 10:52:20 46° W 10:55:49 10° SSW
ADEOS Rocket 3.4 10:45:25 10° NNE 10:52:24 49° E 10:58:42 10° S
Cosmos 1763 Rocket 4.3 10:49:42 10° S 10:53:09 34° SE 10:53:09 34° SE
CENTAUR R/B 2.1 10:51:16 10° SSW 10:56:37 83° WNW 10:59:46 28° NNE
SL-24 R/B 4.3 10:52:09 10° N 10:57:12 83° WNW 11:01:36 10° SSW
Meteor 1-11 4.3 10:56:24 10° N 11:02:11 80° W 11:08:00 10° S
Cosmos 2344 4.3 10:55:03 10° S 11:02:25 35° ESE 11:02:25 35° ESE
Cosmos 2297 3.9 10:57:35 10° SSW 11:03:11 69° WNW 11:07:28 18° N
ASTRO E2 4.0 11:01:37 10° NW 11:04:01 33° NNW 11:04:01 33° NNW
ARIANE 5 R/B 3.9 02:26:04 10° W 11:13:35 44° SSW 11:15:22 36° SSE
H-II Stage 2 4.1 11:05:09 10° W 11:14:10 41° NNW 11:14:17 41° NNW
Cosmos 1153 Rocket 4.3 11:13:40 10° N 11:19:48 89° E 11:25:59 10° S
